Simultaneous Nadir Overpasses (SNOs) Predictions

Prediction of SNOs near US between AQUA and NPP Satellite Orbit:

Table of predicted SNOs near US for the next 10.0 days since TLE Epoch: 11/26/2022
Index Date (AQUA) Time (AQUA) AQUA Lat,Lon Date (NPP) Time (NPP) NPP Lat,Lon Distance(km) Time Diff (sec)
1 11/26/2022 07:57:00 42.14, -86.16 11/26/2022 07:54:48 42.64, -89.11 248.26 132
2 11/26/2022 09:33:41 49.91,-107.96 11/26/2022 09:34:00 50.59,-111.27 247.51 19
3 11/28/2022 20:30:57 49.99,-112.05 11/28/2022 20:24:16 49.51,-114.90 211.39 401
4 12/04/2022 07:03:07 47.44, -71.09 12/04/2022 07:02:24 47.97, -74.31 248.25 43
